Location: Unspecified
(0.0000°N, 0.0000°E)
Time: 22:44:28
(UTC+00:00)

Courier 1B Rocket - All Passes

Search period start: 01 October 2020 00:00
Search period end: 11 October 2020 00:00
Orbit: 920 x 1202 km, 28.2° (Epoch: 01 October)

Date Brightness Start Highest point End Pass type
(mag) Time Alt. Az. Time Alt. Az. Time Alt. Az.
01 Oct - 01:10:08 10° SW 01:17:31 71° SSE 01:24:22 10° ENE night (unlit)
01 Oct - 03:04:55 10° W 03:11:07 33° NNW 03:16:59 10° NNE visible
01 Oct - 10:48:14 10° N 10:51:48 15° NNE 10:55:30 10° ENE daylight
01 Oct - 12:39:11 10° NW 12:45:35 55° NNE 12:52:29 10° ESE daylight
01 Oct - 14:32:47 10° W 14:39:14 43° SSW 14:46:12 10° SE daylight
01 Oct - 16:29:53 10° SW 16:33:45 15° SSW 16:37:42 10° SSE daylight
01 Oct - 22:17:13 10° SSW 22:21:48 16° SSE 22:26:15 10° ESE night (unlit)
02 Oct - 00:08:59 10° SW 00:16:15 48° SSE 00:23:03 10° ENE night (unlit)
02 Oct - 02:02:55 10° WSW 02:09:58 51° NNW 02:16:30 10° NE visible
02 Oct - 04:00:19 10° WNW 04:03:51 15° NNW 04:07:17 10° N visible
02 Oct - 11:38:41 10° NW 11:44:29 36° NNE 11:50:38 10° E daylight
02 Oct - 13:31:26 10° WNW 13:38:00 64° SSW 13:45:08 10° SE daylight
02 Oct - 15:27:07 10° WSW 15:32:08 20° SSW 15:37:22 10° SSE daylight
02 Oct - 21:17:19 10° S 21:20:01 12° SSE 21:22:42 10° SE visible
02 Oct - 23:08:03 10° SW 23:14:52 33° SSE 23:21:21 10° E night (unlit)
03 Oct - 01:01:15 10° WSW 01:08:47 78° NNW 01:15:45 10° NE night (unlit)
03 Oct - 02:57:11 10° WNW 03:02:31 22° NNW 03:07:35 10° NNE visible
03 Oct - 10:38:27 10° NNW 10:43:20 23° NNE 10:48:24 10° ENE daylight
03 Oct - 12:30:24 10° WNW 12:36:53 86° NNE 12:43:52 10° ESE daylight
03 Oct - 14:24:57 10° W 14:30:40 28° SSW 14:36:45 10° SSE daylight
03 Oct - 22:07:20 10° SSW 22:13:22 24° SSE 22:19:13 10° ESE night (unlit)
03 Oct - 23:59:51 10° SW 00:07:32 73° SSE 00:14:43 10° ENE night (unlit)
04 Oct - 01:54:43 10° W 02:01:15 34° NNW 02:07:23 10° NNE night (unlit)
04 Oct - 09:38:40 10° N 09:42:06 15° NNE 09:45:35 10° ENE daylight
04 Oct - 11:29:37 10° NW 11:35:49 56° NNE 11:42:24 10° ESE daylight
04 Oct - 13:23:15 10° W 13:29:22 40° SSW 13:35:56 10° SE daylight
04 Oct - 15:20:34 10° SW 15:23:47 13° SSW 15:27:08 10° S daylight
04 Oct - 21:06:53 10° SSW 21:11:44 17° SSE 21:16:31 10° ESE visible
04 Oct - 22:58:42 10° SW 23:06:12 50° SSE 23:13:20 10° ENE night (unlit)
05 Oct - 00:52:41 10° WSW 01:00:01 51° NNW 01:06:52 10° NE night (unlit)
05 Oct - 02:50:06 10° WNW 02:54:01 15° NNW 02:57:49 10° N visible
05 Oct - 10:29:06 10° NW 10:34:46 35° NNE 10:40:39 10° E daylight
05 Oct - 12:21:54 10° WNW 12:28:13 61° SSW 12:34:58 10° SE daylight
05 Oct - 14:17:43 10° WSW 14:22:14 19° SSW 14:26:58 10° SSE daylight
05 Oct - 20:07:01 10° S 20:09:57 12° SSE 20:12:55 10° SE visible
05 Oct - 21:57:46 10° SW 22:04:47 35° SSE 22:11:35 10° E visible
05 Oct - 23:51:00 10° WSW 23:58:45 76° NNW 00:06:03 10° NE night (unlit)
06 Oct - 01:46:58 10° WNW 01:52:37 23° NNW 01:58:00 10° NNE night (unlit)
06 Oct - 09:28:50 10° NNW 09:33:39 23° NNE 09:38:33 10° ENE daylight
06 Oct - 11:20:52 10° WNW 11:27:09 88° NNE 11:33:49 10° ESE daylight
06 Oct - 13:15:31 10° W 13:20:51 26° SSW 13:26:29 10° SSE daylight
06 Oct - 20:57:06 10° SSW 21:03:16 25° SSE 21:09:22 10° ESE visible
06 Oct - 22:49:36 10° SW 22:57:26 75° SSE 23:04:57 10° ENE night (unlit)
07 Oct - 00:44:29 10° W 00:51:16 34° NNW 00:57:43 10° NE night (unlit)
07 Oct - 02:44:38 10° NNW 02:45:41 10° NNW 02:46:44 10° NNW visible
07 Oct - 08:28:56 10° N 08:32:26 15° NNE 08:35:56 10° ENE daylight
07 Oct - 10:20:03 10° NW 10:26:09 57° NNE 10:32:27 10° ESE daylight
07 Oct - 12:13:47 10° W 12:19:37 38° SSW 12:25:47 10° SE daylight
07 Oct - 14:11:28 10° SW 14:13:56 12° SSW 14:16:28 10° S daylight
07 Oct - 19:56:44 10° SSW 20:01:38 18° SSE 20:06:34 10° ESE visible
07 Oct - 21:48:28 10° SW 21:56:04 52° SSE 22:03:29 10° ENE visible
07 Oct - 23:42:26 10° WSW 23:49:57 51° NNW 23:57:07 10° NE night (unlit)
08 Oct - 01:39:49 10° WNW 01:44:07 16° NNW 01:48:16 10° N night (unlit)
08 Oct - 09:19:27 10° NW 09:25:07 36° NNE 09:30:51 10° E daylight
08 Oct - 11:12:23 10° WNW 11:18:31 58° SSW 11:24:56 10° SE daylight
08 Oct - 13:08:23 10° WSW 13:12:26 17° SSW 13:16:38 10° SSE daylight
08 Oct - 18:57:00 10° S 18:59:54 12° SSE 19:02:50 10° SE visible
08 Oct - 20:47:36 10° SW 20:54:38 36° SSE 21:01:38 10° E visible
08 Oct - 22:40:46 10° WSW 22:48:37 75° NNW 22:56:13 10° NE night (unlit)
09 Oct - 00:36:43 10° WNW 00:42:38 24° NNW 00:48:19 10° NNE night (unlit)
09 Oct - 08:19:05 10° NNW 08:24:00 24° NNE 08:28:53 10° E daylight
09 Oct - 10:11:15 10° WNW 10:17:30 89° SW 10:23:55 10° ESE daylight
09 Oct - 12:06:05 10° W 12:11:06 24° SSW 12:16:20 10° SSE daylight
09 Oct - 19:47:00 10° SSW 19:53:09 25° SSE 19:59:20 10° E visible
09 Oct - 21:39:25 10° SW 21:47:17 77° SSE 21:55:00 10° ENE visible
09 Oct - 23:34:15 10° W 23:41:12 35° NNW 23:47:55 10° NE night (unlit)
10 Oct - 01:33:50 10° NW 01:35:46 11° NNW 01:37:41 10° N night (unlit)
10 Oct - 07:19:01 10° NNW 07:22:46 16° NNE 07:26:26 10° ENE daylight
10 Oct - 09:10:22 10° NW 09:16:31 58° NNE 09:22:41 10° ESE daylight
10 Oct - 11:04:16 10° W 11:09:56 36° SSW 11:15:47 10° SE daylight
10 Oct - 13:02:40 10° SSW 13:04:10 11° SSW 13:05:42 10° S daylight
10 Oct - 18:46:46 10° SSW 18:51:33 18° SSE 18:56:27 10° ESE visible
10 Oct - 20:38:21 10° SW 20:45:53 53° SSE 20:53:28 10° ENE visible
10 Oct - 22:32:15 10° WSW 22:39:49 51° NNW 22:47:13 10° NE night (unlit)
